Lone Rock, WI

10:02 AM CDT on March 23, 2017 (GMT -0500)
Tri-County Regional

Weather History for KLNR - September, 2013

Change the Weather History Date:

Wednesday, September 25, 2013

  Actual Average Record
Temperature  
Mean Temperature 58 °F -  
Max Temperature 73 °F 66 °F 82 °F (2014)
Min Temperature 42 °F 44 °F 33 °F (2001)
Degree Days  
Heating Degree Days 8    
Growing Degree Days 8 (Base 50)    
Moisture  
Dew Point 48 °F    
Average Humidity 87    
Maximum Humidity 100    
Minimum Humidity 49    
Precipitation  
Precipitation 0.00 in - - ()
Sea Level Pressure  
Sea Level Pressure 29.98 in    
Wind  
Wind Speed 1 mph (East)    
Max Wind Speed 8 mph    
Max Gust Speed 17 mph    
Visibility 4 miles    
Events Fog    
Averages and records for this station are not official NWS values.
T = Trace of Precipitation, MM = Missing Value Source: NWS Daily Summary

Daily Weather History Graph

Daily Weather History Graph

Search for Another Location

Airport or City:

Trip Planner

Search our weather history database for the weather conditions in past years. The results will help you decide how hot, cold, wet, or windy it might be!

Date:

Astronomy

Sep. 25, 2013 Rise Set
Actual Time 6:51 AM CDT 6:52 PM CDT
Civil Twilight 6:23 AM CDT 7:20 PM CDT
Nautical Twilight 5:50 AM CDT 7:53 PM CDT
Astronomical Twilight 5:16 AM CDT 8:27 PM CDT
Moon 10:50 PM CDT (9/25) 1:05 PM CDT (9/25)
Length of Visible Light 12h 57m
Length of Day
12h 00m
Waning Gibbous, 64% of the Moon is Illuminated
Sep 25
Waning Gibbous
Sep 26
Last Quarter
Oct 4
New
Oct 11
First Quarter
Oct 18
Full

Hourly Weather History & Observations

Time (CDT) Temp. Dew Point Humidity Pressure Visibility Wind Dir Wind Speed Gust Speed Precip Events Conditions
12:56 AM 50.0 °F 48.0 °F 93% 29.97 in 7.0 mi Calm Calm - N/A   Clear
1:56 AM 48.9 °F 46.9 °F 93% 29.97 in 5.0 mi Calm Calm - N/A   Clear
2:56 AM 46.0 °F 45.0 °F 96% 29.97 in 4.0 mi Calm Calm - N/A   Clear
3:03 AM 46.4 °F 46.4 °F 100% 29.98 in 1.2 mi Calm Calm - N/A   Clear
3:13 AM 46.4 °F 44.6 °F 93% 29.98 in 0.5 mi Calm Calm - N/A Fog Fog
3:22 AM 44.6 °F 44.6 °F 100% 29.98 in 0.5 mi Calm Calm - N/A Fog Fog
3:28 AM 44.6 °F 42.8 °F 93% 29.99 in 1.2 mi Calm Calm - N/A   Partly Cloudy
3:32 AM 46.4 °F 44.6 °F 93% 29.99 in 3.0 mi Calm Calm - N/A   Partly Cloudy
3:56 AM 46.0 °F 44.1 °F 93% 29.97 in 3.0 mi Calm Calm - N/A   Clear
4:26 AM 42.8 °F 42.8 °F 100% 29.99 in 1.8 mi Calm Calm - N/A   Clear
4:30 AM 42.8 °F 42.8 °F 100% 29.99 in 0.8 mi Calm Calm - N/A   Mist
4:39 AM 42.8 °F 42.8 °F 100% 29.99 in 0.2 mi Calm Calm - N/A Fog Fog
4:56 AM 44.1 °F 43.0 °F 96% 29.98 in 0.8 mi Calm Calm - N/A   Mist
5:02 AM 44.6 °F 42.8 °F 93% 29.99 in 0.2 mi Calm Calm - N/A Fog Fog
5:15 AM 44.6 °F 44.6 °F 100% 29.99 in 1.0 mi Calm Calm - N/A   Mist
5:27 AM 44.6 °F 42.8 °F 93% 29.99 in 0.2 mi Calm Calm - N/A Fog Fog
5:56 AM 45.0 °F 44.1 °F 97% 29.99 in 0.2 mi Calm Calm - N/A Fog Fog
6:56 AM 45.0 °F 45.0 °F 100% 30.00 in 0.2 mi Calm Calm - N/A Fog Fog
7:56 AM 45.0 °F 45.0 °F 100% 30.01 in 0.2 mi Calm Calm - N/A Fog Fog
8:56 AM 48.9 °F 48.0 °F 97% 30.01 in 0.2 mi Calm Calm - N/A Fog Fog
9:11 AM 48.2 °F 48.2 °F 100% 30.02 in 0.2 mi Calm Calm - N/A Fog Fog
9:25 AM 50.0 °F 50.0 °F 100% 30.01 in 1.0 mi Calm Calm - N/A   Overcast
9:56 AM 53.1 °F 52.0 °F 96% 30.00 in 4.0 mi Calm Calm - N/A   Mostly Cloudy
10:09 AM 55.4 °F 53.6 °F 94% 30.01 in 5.0 mi Calm Calm - N/A   Scattered Clouds
10:56 AM 60.1 °F 55.0 °F 83% 30.00 in 7.0 mi Variable 3.5 mph - N/A   Clear
11:56 AM 64.9 °F 55.0 °F 70% 29.99 in 8.0 mi Calm Calm - N/A   Clear
12:56 PM 66.9 °F 55.0 °F 66% 29.98 in 10.0 mi ESE 4.6 mph - N/A   Mostly Cloudy
1:56 PM 70.0 °F 54.0 °F 57% 29.95 in 10.0 mi East 8.1 mph 17.3 mph N/A   Partly Cloudy
2:56 PM 71.1 °F 52.0 °F 51% 29.94 in 10.0 mi ESE 4.6 mph - N/A   Clear
3:56 PM 73.0 °F 53.1 °F 49% 29.93 in 10.0 mi Variable 3.5 mph - N/A   Clear
4:56 PM 71.1 °F 53.1 °F 53% 29.92 in 10.0 mi ENE 8.1 mph - N/A   Clear
5:56 PM 69.1 °F 53.1 °F 57% 29.93 in 10.0 mi ENE 8.1 mph - N/A   Clear
6:56 PM 63.0 °F 53.1 °F 70% 29.93 in 10.0 mi ENE 4.6 mph - N/A   Clear
7:56 PM 59.0 °F 52.0 °F 78% 29.94 in 10.0 mi Calm Calm - N/A   Clear
8:56 PM 54.0 °F 50.0 °F 86% 29.95 in 10.0 mi Calm Calm - N/A   Clear
9:56 PM 52.0 °F 48.9 °F 89% 29.96 in 8.0 mi East 5.8 mph - N/A   Clear
10:56 PM 54.0 °F 51.1 °F 90% 29.97 in 7.0 mi East 5.8 mph - N/A   Clear
11:56 PM 54.0 °F 50.0 °F 86% 29.97 in 7.0 mi ESE 3.5 mph - N/A   Clear